Hourly Data Report for September 30, 2007

PETERBOROUGH AWOS
ONTARIO

44°14'00.000" N
78°22'00.000" W
191.40 m
6166420

Download Data

Hourly Data (September 2007)
Hourly Data Report for September 30, 2007
TIME
LST
Temp Definition
°C
Dew Point Definition
°C
Rel Hum Definition
%
Precip. Amount Definition
mm

Wind Dir Definition
10's deg

Wind Spd Definition
km/h
Visibility Definition
km
Stn Press Definition
kPa
Hmdx Definition


Wind Chill Definition


Weather Definition


00:00 7.6 7.3 98   24 6 15.0 100.70      
01:00 7.1 7.0 99     0 9.7 100.71      
02:00 8.1 8.0 99     0 15.0 100.72      
03:00 7.0 7.0 100     0 8.0 100.69      
04:00 6.0 6.0 100     0 8.0 100.73      
05:00 5.0 5.0 100     0 15.0 100.73      
06:00 4.7 4.7 100     0 1.4 100.74      
07:00 6.5 6.5 100     0 15.0 100.80      
08:00 9.6 9.4 99     0 15.0 100.79      
09:00 11.6 11.1 97   1 4 15.0 100.80      
10:00 16.7 12.6 77   15 11 15.0 100.74      
11:00 19.1 10.5 57   14 17 15.0 100.70      
12:00 19.8 10.5 55   18 13 15.0 100.66      
13:00 19.2 10.6 57   16 13 15.0 100.60      
14:00 20.1 10.7 55   16 13 15.0 100.55      
15:00 18.8 10.4 58   17 11 15.0 100.51      
16:00 19.3 10.0 55   14 13 15.0 100.46      
17:00 18.3 10.4 60   14 13 15.0 100.45      
18:00 14.8 11.1 78   14 6 15.0 100.43      
19:00 11.3 10.4 94     0 15.0 100.42      
20:00 11.2 10.7 97     0 15.0 100.41      
21:00 10.2 10.2 100     0 15.0 100.34      
22:00 8.9 8.9 100     0 4.8 100.27      
23:00 9.0 8.9 99     0 15.0 100.21      

Notes on Data Quality.

Legend

  • E = Estimated
  • M = Missing
  • NA = Not Available*
  • [empty] = Indicates an unobserved value
Date modified: